Regional Weather Roundup
Issued by NWS Charleston, SC

Current Version | Previous Version | Graphics & Text | Print | Product List | Glossary On
Versions: 1 2 3 4 5 6 7 8 9 10 11 12 13 14 15 16 17 18 19 20 21 22 23 24 25 26 27 28 29 30 31 32 33 34 35 36 37 38 39 40 41 42 43 44 45 46 47 48 49 50
000
ASUS42 KCHS 050127
RWRCHS

REGIONAL WEATHER ROUNDUP
NATIONAL WEATHER SERVICE CHARLESTON SC
900 PM EDT TUE AUG 04 2015

NOTE: "FAIR" INDICATES FEW OR NO CLOUDS BELOW 12,000 FEET WITH NO
SIGNIFICANT WEATHER AND/OR OBSTRUCTIONS TO VISIBILITY.

NOT ALL STATIONS ARE QUALITY CONTROLLED BY THE NATIONAL
WEATHER SERVICE. USE DATA WITH CAUTION...ESPECIALLY
DEWPOINT OBSERVATIONS.

SCZ027-030-031-034>040-042>050-050200-
...SOUTHEAST SOUTH CAROLINA...

CITY           SKY/WX    TMP DP  RH WIND       PRES   REMARKS
N CHARLESTON   PTCLDY    79  76  90 S8        29.97R
WATERFRONT PRK   N/A     84  79  85 SW7       29.94S HX  96
MOUNT PLEASANT FAIR      82  79  89 S9        29.97R HX  93
JOHNS ISLAND   FAIR      82  79  89 S8        29.98R HX  93
PINOPOLIS      NOT AVBL
MONCKS CORNER  FAIR      84  77  79 SW6       29.96R HX  94
SUMMERVILLE    FAIR      82  79  89 CALM      29.98R HX  93
BEAUFORT MCAS  PTCLDY    84  77  79 S5        29.97R HX  94
BEAUFORT ARPT  FAIR      82  79  89 S6        29.98R HX  93
HILTON HEAD IS CLEAR     82  81  94 S5        29.99S HX  95
WALTERBORO     PTCLDY    86  77  74 S6        29.98R HX  97
ALLENDALE      FAIR      86  73  66 CALM      29.96R HX  93

...SOUTHERN MIDLANDS AND PEE DEE...

CITY           SKY/WX    TMP DP  RH WIND       PRES   REMARKS
GEORGETOWN     NOT AVBL
KINGSTREE      NOT AVBL
ORANGEBURG     CLEAR     87  71  58 SW8       29.96R HX  93
BARNWELL       FAIR      86  75  70 CALM      29.97R HX  95
AIKEN          FAIR      84  61  45 SW6       30.00R
MANNING        HVY RAIN  82  75  78 CALM      29.95S
COLUMBIA       PTCLDY    91  68  46 S7        29.93R HX  95
SUMTER         CLEAR     89  65  45 S3        29.92R HX  91
FLORENCE       CLEAR     87  73  62 S7        29.93R HX  94
MYRTLE BEACH   PTCLDY    84  75  74 SW12      29.96R HX  92
N MYRTLE BEACH PTCLDY    83  78  85 SW13      29.95R HX  93

$$

GAZ063-065-086>088-099>101-113>116-118-119-134>141-150-050200-
...SOUTHEAST GEORGIA...

CITY           SKY/WX    TMP DP  RH WIND       PRES   REMARKS
SAVANNAH ARPT  PTCLDY    85  75  72 SW7       29.98R HX  93
HUNTER AAF     PTCLDY    83  78  85 SW7       29.96R HX  94
FORT STEWART   PTCLDY    82  72  69 S3        29.97R
STATESBORO     CLEAR     84  75  74 SW8       29.98R HX  93
SYLVANIA       CLEAR     86  77  74 SW6       29.99R HX  97
CLAXTON        NOT AVBL

...CSRA...CENTRAL AND FAR SOUTHEAST GEORGIA...

CITY           SKY/WX    TMP DP  RH WIND       PRES   REMARKS
THOMSON        CLEAR     85  76  74 CALM      30.01R HX  94
AUGUSTA-BUSH   PTCLDY    79  68  69 CALM      29.94R
AUGUSTA-DANIEL PTCLDY    89  66  46 CALM      29.96S HX  91
SWAINSBORO     CLOUDY    88  75  66 SW5       30.00S HX  97
VIDALIA        PTCLDY    81  72  74 SW7       30.00R
EASTMAN        FAIR      81  72  72 S3        30.02R
HAZLEHURST     FAIR      81  74  79 SW5       29.99S
ALMA           CLOUDY    78  73  84 S5        30.01R
WAYCROSS       PTCLDY    78  76  92 SW5       30.02R
JESUP          FAIR      81  73  78 W3        30.01R
BAXLEY         FAIR      79  72  78 S6        30.01R
BRUNSWICK      MOCLDY    77  72  83 W5        30.01R
SAINT SIMONS   MOCLDY    78  74  87 W5        30.00R

$$

SCZ027-028-034-036>038-045-046-048>050-GAZ119-141-050200-
...LAKE AND SUPPLEMENTAL COASTAL OBSERVATIONS...

STATION/POSITION TIME  TEMP    WIND        PRES    WAVE   SWELL
                       AIR SEA DIR/SP/G            HT/PER HT/PER/DIR
                 (UTC) (F)     (DEG/KT/KT) (MB)    (FT/S) (FT/S/D)
UPR LAKE MARION  NOT AVBL
WINYAH BAY       0045   82     220/ 10     1013.0S
LAKE MURRAY      0000   92     220/  4/  5 1012.5R
ACE BASIN NERRS  NOT AVBL
FORT PULASKI     0100   84 85  200/  7/ 12 1015.7R
SAPELO ISLAND    0100   80     250/  6     1016.0R

$$

ANZ835-935-AMZ111-154-330-350-352-354-370-450-454-472-050200-
...C-MAN AND BUOY OBSERVATIONS...

STATION/POSITION TIME  TEMP    WIND        PRES    WAVE   SWELL
                       AIR SEA DIR/SP/G            HT/PER HT/PER/DIR
                 (UTC) (F)     (DEG/KT/KT) (MB)    (FT/S) (FT/S/D)
BUOY 41004       0050   82 83  220/ 16/ 17 1014.4R   4/ 6   2/11
BUOY 41008       0050   82 83  240/ 14/ 16 1015.8R   3/ 6   2/120/ 6
FOLLY BEACH CMAN 0100   82     210/ 15/ 17 1015.1R
CAPERS NEARSHORE 0008   83     220/ 16/ 21 1015.0R
FRIPP NEARSHORE  0000   84     200/ 14/ 17 1014.5


STATION/POSITION TIME  TEMP    WIND        PRES    WAVE   SWELL
                       AIR SEA DIR/SP/G            HT/PER HT/PER/DIR
                 (UTC) (F)     (DEG/KT/KT) (MB)    (FT/S) (FT/S/D)
5E ST. MARYS GA  0021      82                N/A     2/ 7
FRYING PAN BUOY  0050   83 81  220/ 19/ 23 1014.4R   7/ 8   5/180/ 8
BUOY 41025       0050   79 84  150/ 17/ 23 1015.6R   5/ 7   2/140/11
CAPE LOOKOUT NC  0100   81     200/ 17/ 22 1014.1R
BUOY 41002       0050   82 81  200/ 19/ 21 1018.5R   6/ 7   2/ 90/11
BUOY 41010       0020   84 84  190/ 10/ 12 1018.5R
ST AUGUSTINE FL  0100   78 77  200/  5/  7 1017.3F


$$


USA.gov is the U.S. government's official web portal to all federal, state and local government web resources and services.